• Join FlightAware (Why Join?)
  • Login
  • US Flag GB Flag 
10:24 EDT


 

Airport Tracker/Info


-or-


 

Live Flight TrackerFlight Track Log ✈ C-GIWO ✈ 10-Apr-2013 ✈ CYEG - CYEV

Flight Track Log - Related Links

Times and Time Zones

All times are in EDT time to prevent confusion due to time zone crossing. See the C-GIWO flight status page for this flight to view local times or setup timezone preferences in your user account.

Time Position Orientation Groundspeed Altitude Reporting Facility
EDT Latitude Longitude Course Direction KTS MPH feet Rate Location/Type
21:55 53.2833 -113.6333 329° Northwest 170 196 3,200  Level Edmonton Center
21:56 53.3167 -113.6667 329° Northwest 220 253 6,500 3,360 Climbing Edmonton Center
21:57 53.3833 -113.7500 323° Northwest 250 288 10,000 3,420 Climbing Edmonton Center
21:58 53.4500 -113.7833 343° North 260 299 13,400 3,000 Climbing Edmonton Center
21:59 53.5167 -113.8667 323° Northwest 280 322 16,100 2,700 Climbing Edmonton Center
22:00 53.6000 -113.9000 347° North 300 345 18,800 2,640 Climbing Edmonton Center
22:01 53.6667 -113.9833 323° Northwest 310 357 21,400 2,160 Climbing Edmonton Center
22:02 53.7500 -114.0333 340° North 330 380 23,200 1,800 Climbing Edmonton Center
22:03 53.8500 -114.1000 339° North 350 403 25,100 1,920 Climbing Edmonton Center
22:04 53.9500 -114.1833 334° Northwest 360 414 27,100 1,680 Climbing Edmonton Center
22:05 54.0500 -114.2667 334° Northwest 380 437 28,500 1,260 Climbing Edmonton Center
22:06 54.1333 -114.3500 330° Northwest 400 460 29,700 1,260 Climbing Edmonton Center
22:07 54.2500 -114.4333 337° Northwest 410 472 31,100 1,380 Climbing Edmonton Center
22:08 54.3500 -114.5167 334° Northwest 420 483 32,500 1,380 Climbing Edmonton Center
22:09 54.4667 -114.6000 337° Northwest 420 483 33,900 720 Climbing Edmonton Center
22:10 54.5667 -114.6833 334° Northwest 430 495 34,000  Climbing Edmonton Center
22:11 54.6833 -114.7667 338° Northwest 450 518 34,000  Level Edmonton Center
22:12 54.8000 -114.8667 334° Northwest 450 518 34,000  Level Edmonton Center
22:13 54.9167 -114.9833 330° Northwest 450 518 34,000  Level Edmonton Center
22:14 55.0333 -115.0667 338° Northwest 450 518 34,000  Level Edmonton Center
22:15 55.1500 -115.1667 334° Northwest 440 506 34,000  Level Edmonton Center
22:16 55.2667 -115.2500 338° Northwest 440 506 34,000  Level Edmonton Center
22:17 55.3500 -115.3667 321° Northwest 440 506 34,000  Level Edmonton Center
22:18 55.4833 -115.4667 337° Northwest 440 506 34,000  Level Edmonton Center
22:19 55.5833 -115.5500 335° Northwest 440 506 34,000  Level Edmonton Center
22:20 55.7000 -115.6500 334° Northwest 450 518 34,000  Level Edmonton Center
22:21 55.8167 -115.7333 338° Northwest 450 518 34,000  Level Edmonton Center
22:22 55.9333 -115.8333 334° Northwest 450 518 34,000  Level Edmonton Center
22:23 56.0333 -115.9500 327° Northwest 450 518 34,000  Level Edmonton Center
22:24 56.1500 -116.0500 334° Northwest 450 518 34,000  Level Edmonton Center
22:25 56.2667 -116.1500 335° Northwest 450 518 34,000  Level Edmonton Center
22:26 56.3833 -116.2500 335° Northwest 450 518 34,000  Level Edmonton Center
22:27 56.5000 -116.3333 338° Northwest 440 506 34,000  Level Edmonton Center
22:28 56.6000 -116.4333 331° Northwest 440 506 34,000  Level Edmonton Center
22:29 56.7000 -116.5333 331° Northwest 440 506 34,000  Level Edmonton Center
22:30 56.8333 -116.6667 331° Northwest 440 506 34,000  Level Edmonton Center
22:31 56.9167 -116.7500 331° Northwest 430 495 34,000  Level Edmonton Center
22:32 57.0500 -116.8667 335° Northwest 440 506 34,000  Level Edmonton Center
22:33 57.1333 -116.9500 332° Northwest 430 495 34,000  Level Edmonton Center
22:34 57.2667 -117.0667 335° Northwest 440 506 34,000  Level Edmonton Center
22:35 57.3667 -117.1500 336° Northwest 420 483 34,000  Level Edmonton Center
22:36 57.4667 -117.2500 332° Northwest 430 495 34,000  Level Edmonton Center
22:37 57.5833 -117.3500 335° Northwest 430 495 34,000  Level Edmonton Center
22:38 57.7000 -117.4667 332° Northwest 430 495 34,000  Level Edmonton Center
22:39 57.8000 -117.6000 325° Northwest 420 483 34,000  Level Edmonton Center
22:40 57.9167 -117.7000 336° Northwest 430 495 34,000  Level Edmonton Center
22:41 58.0167 -117.8000 332° Northwest 440 506 34,000  Level Edmonton Center
22:42 58.1167 -117.9000 332° Northwest 430 495 34,000  Level Edmonton Center
22:43 58.2333 -118.0167 332° Northwest 430 495 34,000  Level Edmonton Center
22:44 58.3333 -118.1167 332° Northwest 430 495 34,000  Level Edmonton Center
22:45 58.4500 -118.2333 332° Northwest 440 506 34,000  Level Edmonton Center
22:46 58.5667 -118.3333 336° Northwest 450 518 34,000  Level Edmonton Center
22:47 58.6667 -118.4833 322° Northwest 450 518 34,000  Level Edmonton Center
22:49 58.8290 -118.6468 332° Northwest  Level FlightAware Approximate
22:54 59.4333 -119.2667 332° Northwest 430 495 34,000  Level Edmonton Center
22:55 59.5333 -119.3833 329° Northwest 430 495 34,000  Level Edmonton Center
22:56 59.5295 -119.3726 332° Northwest  Level FlightAware Approximate
22:56 59.6500 -119.5333 327° Northwest 440 506 34,000  Level Edmonton Center
22:57 59.6292 -119.4788 332° Northwest  Level FlightAware Approximate
22:57 59.7500 -119.6500 330° Northwest 440 506 34,000  Level Edmonton Center
22:58 59.7288 -119.5856 332° Northwest  Level FlightAware Approximate
22:58 59.8667 -119.7667 333° Northwest 440 506 34,000  Level Edmonton Center
22:59 59.8284 -119.6930 332° Northwest  Level FlightAware Approximate
22:59 59.9833 -119.8833 333° Northwest 450 518 34,000  Level Edmonton Center
23:00 60.1000 -120.0000 334° Northwest 440 506 34,000  Level Edmonton Center
23:01 60.1833 -120.1167 325° Northwest 440 506 34,000  Level Edmonton Center
23:02 60.3000 -120.2500 330° Northwest 440 506 34,000  Level Edmonton Center
23:03 60.4000 -120.4000 323° Northwest 440 506 34,000  Level Edmonton Center
23:04 60.5000 -120.5167 330° Northwest 440 506 34,000  Level Edmonton Center
23:05 60.6167 -120.6333 334° Northwest 430 495 34,000  Level Edmonton Center
23:06 60.7167 -120.7667 327° Northwest 430 495 34,000  Level Edmonton Center
23:07 60.8167 -120.8833 330° Northwest 430 495 34,000  Level Edmonton Center
23:08 60.9333 -121.0167 331° Northwest 430 495 34,000  Level Edmonton Center
23:09 61.0333 -121.1500 327° Northwest 430 495 34,000  Level Edmonton Center
23:10 61.1333 -121.2667 331° Northwest 420 483 34,000  Level Edmonton Center
23:11 61.2333 -121.3833 331° Northwest 430 495 34,000  Level Edmonton Center
23:12 61.3500 -121.5333 328° Northwest 430 495 34,000  Level Edmonton Center
23:13 61.4500 -121.6500 331° Northwest 430 495 34,000  Level Edmonton Center
23:14 61.5500 -121.7833 328° Northwest 430 495 34,000  Level Edmonton Center
23:15 61.6500 -121.9500 322° Northwest 440 506 34,000  Level Edmonton Center
23:16 61.7500 -122.0833 328° Northwest 440 506 34,000  Level Edmonton Center
23:17 61.8667 -122.2167 332° Northwest 440 506 34,000  Level Edmonton Center
23:18 61.9667 -122.3500 328° Northwest 440 506 34,000  Level Edmonton Center
23:19 62.0667 -122.4833 328° Northwest 450 518 34,000  Level Edmonton Center
23:20 62.1833 -122.6167 332° Northwest 430 495 34,000  Level Edmonton Center
23:21 62.2833 -122.7500 328° Northwest 440 506 34,000  Level Edmonton Center
23:22 62.3833 -122.9000 325° Northwest 440 506 34,000  Level Edmonton Center
23:24 62.5340 -123.1030 328° Northwest  Level FlightAware Approximate
23:31 63.2033 -124.0356 328° Northwest  Level FlightAware Approximate
23:32 63.2985 -124.1724 327° Northwest  Level FlightAware Approximate
23:33 63.3934 -124.3100 327° Northwest  Level FlightAware Approximate
23:34 63.4883 -124.4486 327° Northwest  Level FlightAware Approximate
23:35 63.5830 -124.5881 327° Northwest  Level FlightAware Approximate
23:36 63.6776 -124.7285 327° Northwest  Level FlightAware Approximate
23:37 63.7720 -124.8699 327° Northwest  Level FlightAware Approximate
23:38 63.8663 -125.0122 326° Northwest  Level FlightAware Approximate
23:39 63.9605 -125.1555 326° Northwest  Level FlightAware Approximate
23:40 64.0545 -125.2997 326° Northwest  Level FlightAware Approximate
23:41 64.1484 -125.4449 326° Northwest  Level FlightAware Approximate
23:42 64.2421 -125.5911 326° Northwest  Level FlightAware Approximate
23:43 64.3357 -125.7383 326° Northwest  Level FlightAware Approximate
23:44 64.4291 -125.8865 326° Northwest  Level FlightAware Approximate
23:45 64.5224 -126.0357 325° Northwest  Level FlightAware Approximate
23:46 64.6155 -126.1859 325° Northwest  Level FlightAware Approximate
23:47 64.7085 -126.3372 325° Northwest  Level FlightAware Approximate
23:48 64.8013 -126.4895 325° Northwest  Level FlightAware Approximate
23:49 64.8940 -126.6428 325° Northwest  Level FlightAware Approximate
23:50 64.9865 -126.7972 325° Northwest  Level FlightAware Approximate
23:51 65.0788 -126.9527 325° Northwest  Level FlightAware Approximate
23:52 65.1710 -127.1093 325° Northwest  Level FlightAware Approximate
23:53 65.2630 -127.2670 324° Northwest  Level FlightAware Approximate
23:54 65.3549 -127.4257 324° Northwest  Level FlightAware Approximate
23:55 65.4466 -127.5856 324° Northwest  Level FlightAware Approximate
23:56 65.5381 -127.7466 324° Northwest  Level FlightAware Approximate
23:57 65.6294 -127.9087 324° Northwest  Level FlightAware Approximate
23:58 65.7206 -128.0720 324° Northwest  Level FlightAware Approximate
23:59 65.8116 -128.2364 324° Northwest  Level FlightAware Approximate
00:00 65.9024 -128.4020 323° Northwest  Level FlightAware Approximate
00:01 65.9966 -128.5615 325° Northwest  Level FlightAware Approximate
00:02 66.0907 -128.7222 325° Northwest  Level FlightAware Approximate
00:03 66.1845 -128.8841 325° Northwest  Level FlightAware Approximate
00:04 66.2783 -129.0471 325° Northwest  Level FlightAware Approximate
00:05 66.3718 -129.2114 325° Northwest  Level FlightAware Approximate
00:06 66.4653 -129.3767 325° Northwest  Level FlightAware Approximate
00:07 66.5590 -129.5416 325° Northwest  Level FlightAware Approximate
00:08 66.6525 -129.7077 325° Northwest  Level FlightAware Approximate
00:09 66.7459 -129.8751 325° Northwest  Level FlightAware Approximate
00:10 66.8390 -130.0441 323° Northwest  Level FlightAware Approximate
00:11 66.9305 -130.2191 323° Northwest  Level FlightAware Approximate
00:12 67.0219 -130.3954 323° Northwest  Level FlightAware Approximate
00:13 67.1133 -130.5576 325° Northwest  Level FlightAware Approximate
00:14 67.2067 -130.7281 325° Northwest  Level FlightAware Approximate
00:15 67.2999 -130.8999 325° Northwest  Level FlightAware Approximate
00:16 67.3908 -131.0806 323° Northwest  Level FlightAware Approximate
00:17 67.4815 -131.2626 322° Northwest  Level FlightAware Approximate
00:18 67.5727 -131.4434 323° Northwest  Level FlightAware Approximate
00:19 67.6640 -131.6249 323° Northwest  Level FlightAware Approximate
00:20 67.7550 -131.8078 323° Northwest  Level FlightAware Approximate
00:21 67.8457 -131.9927 321° Northwest  Level FlightAware Approximate
00:22 67.9351 -132.1825 321° Northwest  Level FlightAware Approximate
00:23 68.0249 -132.3716 322° Northwest  Level FlightAware Approximate
00:24 68.1149 -132.5610 322° Northwest  Level FlightAware Approximate
00:25 68.2048 -132.7514 322° Northwest  Level FlightAware Approximate
00:26 68.2977 -132.9287 324° Northwest  Level FlightAware Approximate
00:27 68.3000 -133.2010 270° West  Level FlightAware Approximate
00:28 68.3000 -133.4667 270° West  Level FlightAware Approximate
00:29 68.3042 -133.4828 270° West  Level Estimated
00:30 68.3042 -133.4828 270° West  Level Estimated
00:31 68.3042 -133.4828 270° West  Level Estimated
00:32 68.3042 -133.4828 270° West  Level Estimated
00:33 68.3042 -133.4828 270° West  Level Estimated
00:34 68.3042 -133.4828 270° West  Level Estimated